Weather in Igrim

Russia / Khanty-Mansi Autonomous Okrug — Yugra     63°11′46″N   64°25′18″E
temp.,
°C
wind,
m/s
gust,
m/s
humid.,
%
clouds,
%
prec.,
mm/h
press.,
hPa
HPBL,
m
19 may, wed
wed1923:00+7ne266128 0.0 1025128
02:00+6ene1163100 0.0 102515
05:00+6se116186 0.0 102617
08:00+10sse1146100 0.0 1026490
11:00+12sse224399 0.0 1025831
14:00+15s2441100 0.0 10231272
17:00+17sse2444100 0.0 1021548
20:00+15sse3852100 0.0 1018257
20 may, thu
thu2023:00+11se61265100 0.0 1017404
02:00+10sse4782100 0.9 1015189
05:00+12ssw2786100 1.1 1014201
08:00+16wnw2569100 0.1 1013316
11:00+22nnw255083 0.1 1013829
14:00+26nnw37386 0.0 10131948
17:00+27nne46355 0.0 10132009
20:00+23e245258 0.0 101488
21 may, fri
fri2123:00+18s236961 0.0 101549
02:00+17s25775 0.0 101592
05:00+17ssw23745 0.0 101572
08:00+24wsw354613 0.0 1014324
11:00+28wsw452918 0.0 10141469
14:00+30sw56225 0.0 10122818
17:00+30wsw56210 0.0 10122712
20:00+26sw23300 0.0 101155
22 may, sat
sat2223:00+21ssw23400 0.0 101150
02:00+18ssw37490 0.0 1010125
05:00+17ssw23565 0.0 101066
08:00+23sw35394 0.0 1009401
11:00+26sw6113424 0.0 10082493
14:00+27sw61028100 0.0 10063340
17:00+23sw5940100 0.0 10071706
20:00+19ssw71160100 0.3 10061048
23 may, sun
sun2323:00+16w61370100 1.3 10071071
02:00+15w5116023 0.0 1009653
05:00+14w412625 0.0 1010564
08:00+18wnw510380 0.0 10111726
11:00+21w692657 0.0 10112972
14:00+22w692143 0.0 10113156
17:00+20w81136100 0.0 10122501
20:00+18w61343100 0.0 10122275